• In Belgien
  • Länderverzeichnis
  • Für 7 Tage
  • Wassertemperatur
  • Satellitenkarten
  • Wetterkarte
  • Widgets
  • user-avatar
    Anmelden

    Stündliche Wetter Jechegnadsor

    Heute, 15 November, Donnerstag

    Zeit Temperatur Niederschläge Wind Luftdruck Luftfeuchtigkeit
    00:00 +6°C° 0.4 mm 2 m/S 651 mmHg 76%
    01:00 +5°C° 0.3 mm 2 m/S 651 mmHg 76%
    02:00 +5°C° 0.3 mm 2 m/S 651 mmHg 76%
    03:00 +5°C° 0 mm 2 m/S 651 mmHg 76%
    04:00 +5°C° 0.2 mm 2 m/S 651 mmHg 76%
    05:00 +5°C° 0.2 mm 2 m/S 651 mmHg 75%
    06:00 +5°C° 0.2 mm 2 m/S 651 mmHg 75%
    07:00 +6°C° 0.2 mm 2 m/S 651 mmHg 73%
    08:00 +7°C° 0.2 mm 2 m/S 651 mmHg 71%
    09:00 +8°C° 0 mm 3 m/S 651 mmHg 68%
    10:00 +9°C° 0.1 mm 3 m/S 651 mmHg 67%
    11:00 +10°C° 0.1 mm 4 m/S 651 mmHg 66%
    12:00 +10°C° 0.1 mm 4 m/S 651 mmHg 65%
    13:00 +10°C° 0 mm 4 m/S 651 mmHg 65%
    14:00 +11°C° 0 mm 4 m/S 651 mmHg 65%
    15:00 +11°C° 0 mm 4 m/S 651 mmHg 65%
    16:00 +10°C° 0.1 mm 4 m/S 651 mmHg 67%
    17:00 +9°C° 0.1 mm 3 m/S 651 mmHg 70%
    18:00 +9°C° 0.1 mm 2 m/S 651 mmHg 73%
    19:00 +9°C° 0.2 mm 2 m/S 651 mmHg 73%
    20:00 +8°C° 0.2 mm 2 m/S 651 mmHg 73%
    21:00 +8°C° 0.2 mm 2 m/S 652 mmHg 74%
    22:00 +8°C° 0.3 mm 2 m/S 652 mmHg 74%
    23:00 +8°C° 0.3 mm 2 m/S 652 mmHg 74%

    Morgen, 16 November, Freitag

    Zeit Temperatur Niederschläge Wind Luftdruck Luftfeuchtigkeit
    00:00 +8°C° 0.3 mm 2 m/S 652 mmHg 75%
    01:00 +8°C° 0.2 mm 2 m/S 652 mmHg 75%
    02:00 +8°C° 0.2 mm 2 m/S 652 mmHg 76%
    03:00 +7°C° 0.2 mm 2 m/S 652 mmHg 77%
    04:00 +7°C° 0.2 mm 2 m/S 652 mmHg 77%
    05:00 +7°C° 0.2 mm 2 m/S 652 mmHg 78%
    06:00 +7°C° 0.2 mm 2 m/S 652 mmHg 78%
    07:00 +8°C° 0.1 mm 2 m/S 652 mmHg 75%
    08:00 +8°C° 0.1 mm 2 m/S 653 mmHg 72%
    09:00 +9°C° 0.1 mm 2 m/S 653 mmHg 70%
    10:00 +10°C° 0.1 mm 2 m/S 653 mmHg 68%
    11:00 +10°C° 0.1 mm 2 m/S 653 mmHg 67%
    12:00 +12°C° 0.1 mm 2 m/S 653 mmHg 66%
    13:00 +12°C° 0.1 mm 2 m/S 654 mmHg 66%
    14:00 +12°C° 0.1 mm 2 m/S 654 mmHg 66%
    15:00 +12°C° 0.1 mm 2 m/S 654 mmHg 66%
    16:00 +10°C° 0 mm 2 m/S 654 mmHg 69%
    17:00 +10°C° 0 mm 1 m/S 654 mmHg 71%
    18:00 +9°C° 0 mm 1 m/S 654 mmHg 73%
    19:00 +9°C° 0 mm 1 m/S 654 mmHg 73%
    20:00 +8°C° 0 mm 2 m/S 654 mmHg 72%
    21:00 +8°C° 0 mm 2 m/S 654 mmHg 71%
    22:00 +8°C° 0 mm 2 m/S 654 mmHg 70%
    23:00 +8°C° 0 mm 2 m/S 654 mmHg 70%

    übermorgen, 17 November, Samstag

    Zeit Temperatur Niederschläge Wind Luftdruck Luftfeuchtigkeit
    00:00 +7°C° 0 mm 2 m/S 654 mmHg 70%
    01:00 +7°C° 0 mm 2 m/S 654 mmHg 71%
    02:00 +7°C° 0 mm 2 m/S 654 mmHg 72%
    03:00 +7°C° 0 mm 2 m/S 654 mmHg 73%
    04:00 +7°C° 0 mm 2 m/S 654 mmHg 74%
    05:00 +7°C° 0 mm 2 m/S 654 mmHg 76%
    06:00 +7°C° 0 mm 2 m/S 655 mmHg 78%
    07:00 +7°C° 0 mm 2 m/S 655 mmHg 76%
    08:00 +8°C° 0 mm 2 m/S 655 mmHg 74%
    09:00 +9°C° 0 mm 2 m/S 656 mmHg 71%
    10:00 +9°C° 0 mm 2 m/S 656 mmHg 69%
    11:00 +10°C° 0 mm 2 m/S 656 mmHg 67%
    12:00 +10°C° 0 mm 2 m/S 656 mmHg 65%
    13:00 +10°C° 0 mm 2 m/S 656 mmHg 63%
    14:00 +10°C° 0 mm 2 m/S 655 mmHg 61%
    15:00 +10°C° 0 mm 2 m/S 655 mmHg 60%
    16:00 +9°C° 0 mm 2 m/S 655 mmHg 63%
    17:00 +9°C° 0 mm 1 m/S 655 mmHg 66%
    18:00 +8°C° 0 mm 1 m/S 655 mmHg 69%
    19:00 +7°C° 0 mm 1 m/S 655 mmHg 69%
    20:00 +7°C° 0 mm 1 m/S 655 mmHg 69%
    21:00 +7°C° 0 mm 1 m/S 655 mmHg 69%
    22:00 +6°C° 0 mm 2 m/S 655 mmHg 69%
    23:00 +6°C° 0 mm 2 m/S 655 mmHg 69%

    18 November, Sonntag

    Zeit Temperatur Niederschläge Wind Luftdruck Luftfeuchtigkeit
    00:00 +6°C° 0 mm 2 m/S 655 mmHg 69%
    01:00 +5°C° 0 mm 2 m/S 654 mmHg 70%
    02:00 +5°C° 0 mm 2 m/S 654 mmHg 72%
    03:00 +5°C° 0 mm 2 m/S 654 mmHg 73%
    04:00 +6°C° 0 mm 1 m/S 654 mmHg 74%
    05:00 +5°C° 0 mm 1 m/S 654 mmHg 76%
    06:00 +5°C° 0 mm 1 m/S 654 mmHg 77%
    07:00 +5°C° 0 mm 2 m/S 654 mmHg 75%
    08:00 +6°C° 0 mm 2 m/S 654 mmHg 72%
    09:00 +7°C° 0 mm 2 m/S 655 mmHg 69%
    10:00 +8°C° 0 mm 2 m/S 654 mmHg 66%
    11:00 +9°C° 0 mm 2 m/S 654 mmHg 64%
    12:00 +9°C° 0 mm 2 m/S 654 mmHg 61%
    13:00 +9°C° 0 mm 2 m/S 653 mmHg 60%
    14:00 +9°C° 0 mm 2 m/S 653 mmHg 60%
    15:00 +9°C° 0 mm 2 m/S 653 mmHg 59%
    16:00 +8°C° 0 mm 2 m/S 653 mmHg 61%
    17:00 +7°C° 0 mm 2 m/S 653 mmHg 63%
    18:00 +7°C° 0 mm 1 m/S 652 mmHg 65%
    19:00 +7°C° 0 mm 1 m/S 653 mmHg 65%
    20:00 +6°C° 0 mm 2 m/S 653 mmHg 65%
    21:00 +6°C° 0 mm 2 m/S 653 mmHg 65%
    22:00 +5°C° 0 mm 2 m/S 653 mmHg 66%
    23:00 +5°C° 0 mm 2 m/S 653 mmHg 68%

    19 November, Montag

    Zeit Temperatur Niederschläge Wind Luftdruck Luftfeuchtigkeit
    00:00 +5°C° 0 mm 2 m/S 653 mmHg 69%
    01:00 +5°C° 0 mm 2 m/S 653 mmHg 70%
    02:00 +5°C° 0 mm 2 m/S 653 mmHg 71%
    03:00 +5°C° 0 mm 1 m/S 653 mmHg 72%
    04:00 +5°C° 0 mm 1 m/S 653 mmHg 73%
    05:00 +5°C° 0 mm 1 m/S 653 mmHg 73%
    06:00 +5°C° 0 mm 1 m/S 653 mmHg 74%
    07:00 +5°C° 0 mm 2 m/S 653 mmHg 70%
    08:00 +6°C° 0 mm 2 m/S 654 mmHg 67%
    09:00 +8°C° 0 mm 2 m/S 655 mmHg 63%
    10:00 +9°C° 0 mm 2 m/S 655 mmHg 62%
    11:00 +9°C° 0 mm 2 m/S 655 mmHg 60%
    12:00 +10°C° 0 mm 2 m/S 655 mmHg 58%
    13:00 +10°C° 0 mm 2 m/S 654 mmHg 57%
    14:00 +10°C° 0 mm 2 m/S 654 mmHg 56%
    15:00 +12°C° 0 mm 2 m/S 654 mmHg 55%
    16:00 +10°C° 0 mm 1 m/S 654 mmHg 58%
    17:00 +9°C° 0 mm 1 m/S 654 mmHg 61%
    18:00 +8°C° 0 mm 1 m/S 654 mmHg 63%
    19:00 +7°C° 0 mm 1 m/S 654 mmHg 62%
    20:00 +7°C° 0 mm 1 m/S 654 mmHg 62%
    21:00 +7°C° 0 mm 1 m/S 654 mmHg 61%
    22:00 +7°C° 0 mm 1 m/S 654 mmHg 61%
    23:00 +7°C° 0 mm 1 m/S 654 mmHg 61%

    20 November, Dienstag

    Zeit Temperatur Niederschläge Wind Luftdruck Luftfeuchtigkeit
    00:00 +7°C° 0 mm 1 m/S 654 mmHg 62%
    01:00 +6°C° 0 mm 1 m/S 654 mmHg 63%
    02:00 +6°C° 0 mm 1 m/S 654 mmHg 64%
    03:00 +6°C° 0 mm 1 m/S 654 mmHg 65%
    04:00 +6°C° 0 mm 1 m/S 654 mmHg 66%
    05:00 +6°C° 0 mm 1 m/S 654 mmHg 67%
    06:00 +6°C° 0 mm 1 m/S 654 mmHg 68%
    07:00 +7°C° 0 mm 1 m/S 655 mmHg 64%
    08:00 +8°C° 0 mm 1 m/S 655 mmHg 60%
    09:00 +10°C° 0 mm 1 m/S 656 mmHg 57%
    10:00 +10°C° 0 mm 1 m/S 656 mmHg 55%
    11:00 +11°C° 0 mm 1 m/S 656 mmHg 54%
    12:00 +12°C° 0 mm 2 m/S 656 mmHg 52%
    13:00 +12°C° 0 mm 2 m/S 655 mmHg 51%
    14:00 +12°C° 0 mm 2 m/S 655 mmHg 50%
    15:00 +12°C° 0 mm 2 m/S 655 mmHg 49%
    16:00 +10°C° 0 mm 1 m/S 655 mmHg 52%
    17:00 +9°C° 0 mm 1 m/S 654 mmHg 55%
    18:00 +7°C° 0 mm 1 m/S 654 mmHg 58%
    19:00 +6°C° 0 mm 0 m/S 654 mmHg 58%
    20:00 +6°C° 0 mm 0 m/S 654 mmHg 58%
    21:00 +5°C° 0 mm 0 m/S 655 mmHg 58%
    22:00 +5°C° 0 mm 0 m/S 654 mmHg 58%
    23:00 +5°C° 0 mm 0 m/S 654 mmHg 58%
    Mehr zeigen